TimeCDT,TemperatureF,Dew PointF,Humidity,Sea Level PressureIn,VisibilityMPH,Wind Direction,Wind SpeedMPH,Gust SpeedMPH,PrecipitationIn,Events,Conditions,WindDirDegrees,DateUTC
12:15 AM,72.0,68.0,87,29.97,10.0,North,4.6,-,N/A,,Clear,350,2013-07-04 05:15:00
12:35 AM,72.3,68.4,87,29.97,10.0,Calm,Calm,-,N/A,,Clear,0,2013-07-04 05:35:00
12:55 AM,72.7,68.4,86,29.96,10.0,Calm,Calm,-,N/A,,Clear,0,2013-07-04 05:55:00
1:15 AM,72.9,68.7,87,29.96,10.0,Calm,Calm,-,N/A,,Mostly Cloudy,0,2013-07-04 06:15:00
1:35 AM,72.9,68.9,87,29.96,10.0,Calm,Calm,-,N/A,,Mostly Cloudy,0,2013-07-04 06:35:00
1:55 AM,72.5,68.7,88,29.95,10.0,Calm,Calm,-,N/A,,Scattered Clouds,0,2013-07-04 06:55:00
2:15 AM,72.1,68.4,88,29.95,10.0,Calm,Calm,-,N/A,,Clear,0,2013-07-04 07:15:00
2:35 AM,72.0,68.7,89,29.95,10.0,Calm,Calm,-,N/A,,Clear,0,2013-07-04 07:35:00
2:55 AM,72.0,68.5,89,29.95,10.0,Calm,Calm,-,N/A,,Clear,0,2013-07-04 07:55:00
3:15 AM,72.0,68.9,90,29.94,10.0,Calm,Calm,-,N/A,,Clear,0,2013-07-04 08:15:00
3:35 AM,71.8,68.5,89,29.94,10.0,Calm,Calm,-,N/A,,Clear,0,2013-07-04 08:35:00
3:55 AM,71.6,68.2,89,29.95,10.0,Calm,Calm,-,N/A,,Clear,0,2013-07-04 08:55:00
4:15 AM,70.7,67.5,89,29.95,7.0,Calm,Calm,-,N/A,,Clear,0,2013-07-04 09:15:00
4:35 AM,70.0,66.7,89,29.95,7.0,Calm,Calm,-,N/A,,Clear,0,2013-07-04 09:35:00
4:55 AM,70.3,67.3,90,29.95,7.0,NNW,4.6,-,N/A,,Clear,340,2013-07-04 09:55:00
5:15 AM,70.2,67.1,90,29.95,7.0,Calm,Calm,-,N/A,,Clear,0,2013-07-04 10:15:00
5:35 AM,70.2,67.1,90,29.95,7.0,Calm,Calm,-,N/A,,Clear,0,2013-07-04 10:35:00
5:55 AM,70.7,67.6,90,29.95,7.0,NNW,3.5,-,N/A,,Clear,340,2013-07-04 10:55:00
6:15 AM,70.0,67.1,91,29.95,7.0,Calm,Calm,-,N/A,,Clear,0,2013-07-04 11:15:00
6:35 AM,71.1,68.0,90,29.97,10.0,Calm,Calm,-,N/A,,Clear,0,2013-07-04 11:35:00
6:55 AM,71.6,68.4,89,29.97,7.0,NW,3.5,-,N/A,,Clear,320,2013-07-04 11:55:00
7:15 AM,72.5,69.3,90,29.97,10.0,Calm,Calm,-,N/A,,Clear,0,2013-07-04 12:15:00
7:35 AM,73.8,69.4,86,29.97,10.0,NNE,3.5,-,N/A,,Clear,20,2013-07-04 12:35:00
7:55 AM,75.4,69.6,82,29.97,10.0,NNE,3.5,-,N/A,,Scattered Clouds,30,2013-07-04 12:55:00
8:15 AM,76.5,69.6,79,29.97,10.0,North,3.5,-,N/A,,Clear,10,2013-07-04 13:15:00
8:35 AM,78.1,70.0,76,29.97,10.0,Calm,Calm,-,N/A,,Clear,0,2013-07-04 13:35:00
8:55 AM,79.9,70.0,72,29.97,10.0,NE,3.5,-,N/A,,Clear,50,2013-07-04 13:55:00
9:15 AM,81.0,70.0,69,29.97,10.0,Calm,Calm,-,N/A,,Clear,0,2013-07-04 14:15:00
9:35 AM,82.2,69.4,65,29.97,10.0,NNW,3.5,-,N/A,,Clear,340,2013-07-04 14:35:00
9:55 AM,83.3,68.5,61,29.97,10.0,Calm,Calm,-,N/A,,Clear,0,2013-07-04 14:55:00
10:15 AM,84.9,67.5,56,29.97,10.0,NNW,4.6,-,N/A,,Clear,330,2013-07-04 15:15:00
10:35 AM,86.2,65.1,49,29.98,10.0,North,8.1,-,N/A,,Clear,350,2013-07-04 15:35:00
10:55 AM,87.3,63.7,45,29.98,10.0,North,6.9,-,N/A,,Clear,360,2013-07-04 15:55:00
11:15 AM,87.6,62.6,43,29.98,10.0,North,6.9,-,N/A,,Clear,10,2013-07-04 16:15:00
11:35 AM,88.3,63.3,43,29.98,10.0,North,6.9,-,N/A,,Scattered Clouds,350,2013-07-04 16:35:00
11:55 AM,87.4,62.4,43,29.98,10.0,North,6.9,-,N/A,,Scattered Clouds,350,2013-07-04 16:55:00
12:15 PM,89.6,62.1,40,29.98,10.0,North,9.2,-,N/A,,Mostly Cloudy,10,2013-07-04 17:15:00
12:35 PM,89.2,60.1,37,29.98,10.0,North,6.9,-,N/A,,Scattered Clouds,360,2013-07-04 17:35:00
12:55 PM,90.5,60.1,36,29.97,10.0,North,9.2,-,N/A,,Scattered Clouds,10,2013-07-04 17:55:00
1:15 PM,89.6,61.3,39,29.96,10.0,North,10.4,-,N/A,,Scattered Clouds,360,2013-07-04 18:15:00
1:35 PM,89.4,59.7,37,29.96,10.0,North,10.4,-,N/A,,Mostly Cloudy,350,2013-07-04 18:35:00
1:55 PM,90.3,58.5,34,29.95,10.0,North,10.4,-,N/A,,Scattered Clouds,10,2013-07-04 18:55:00
2:15 PM,91.4,57.7,32,29.95,10.0,NNE,6.9,-,N/A,,Scattered Clouds,20,2013-07-04 19:15:00
2:35 PM,90.1,59.0,35,29.94,10.0,North,9.2,-,N/A,,Scattered Clouds,360,2013-07-04 19:35:00
2:55 PM,92.1,58.8,33,29.94,10.0,NNE,11.5,16.1,N/A,,Scattered Clouds,20,2013-07-04 19:55:00
3:15 PM,92.1,59.2,33,29.93,10.0,North,10.4,-,N/A,,Scattered Clouds,10,2013-07-04 20:15:00
3:35 PM,92.3,55.4,29,29.92,10.0,North,9.2,17.3,N/A,,Scattered Clouds,360,2013-07-04 20:35:00
3:55 PM,89.1,55.2,32,29.92,10.0,NNE,6.9,-,N/A,,Scattered Clouds,20,2013-07-04 20:55:00
4:15 PM,91.9,54.5,28,29.92,10.0,NE,8.1,-,N/A,,Scattered Clouds,40,2013-07-04 21:15:00
4:35 PM,92.5,54.1,27,29.92,10.0,NE,5.8,-,N/A,,Scattered Clouds,50,2013-07-04 21:35:00
4:55 PM,92.3,54.3,28,29.92,10.0,North,6.9,-,N/A,,Scattered Clouds,10,2013-07-04 21:55:00
5:15 PM,92.3,53.6,27,29.92,10.0,NNE,9.2,-,N/A,,Scattered Clouds,20,2013-07-04 22:15:00
5:35 PM,91.8,54.5,28,29.92,10.0,NNE,5.8,-,N/A,,Clear,20,2013-07-04 22:35:00
5:55 PM,91.4,53.1,27,29.92,10.0,NE,6.9,-,N/A,,Scattered Clouds,40,2013-07-04 22:55:00
6:15 PM,90.9,56.1,31,29.92,10.0,NE,5.8,-,N/A,,Scattered Clouds,50,2013-07-04 23:15:00
6:35 PM,90.7,57.6,33,29.92,10.0,NE,4.6,-,N/A,,Scattered Clouds,40,2013-07-04 23:35:00
6:55 PM,90.0,57.9,34,29.92,10.0,NNE,4.6,-,N/A,,Scattered Clouds,30,2013-07-04 23:55:00
7:15 PM,88.7,57.9,35,29.92,10.0,NE,5.8,-,N/A,,Clear,40,2013-07-05 00:15:00
7:35 PM,88.0,59.7,38,29.93,10.0,NE,4.6,-,N/A,,Scattered Clouds,50,2013-07-05 00:35:00
7:55 PM,86.5,62.2,44,29.93,10.0,Calm,Calm,-,N/A,,Scattered Clouds,0,2013-07-05 00:55:00
8:15 PM,84.2,64.8,52,29.93,10.0,Calm,Calm,-,N/A,,Scattered Clouds,0,2013-07-05 01:15:00
8:35 PM,82.8,65.7,56,29.94,10.0,Calm,Calm,-,N/A,,Scattered Clouds,0,2013-07-05 01:35:00
8:55 PM,82.6,67.1,59,29.94,10.0,ESE,5.8,-,N/A,,Clear,120,2013-07-05 01:55:00
9:15 PM,81.5,68.0,63,29.95,10.0,ESE,5.8,-,N/A,,Clear,120,2013-07-05 02:15:00
9:35 PM,80.2,68.0,66,29.95,10.0,ESE,3.5,-,N/A,,Clear,110,2013-07-05 02:35:00
9:55 PM,79.7,68.7,69,29.95,10.0,ESE,3.5,-,N/A,,Clear,120,2013-07-05 02:55:00
10:15 PM,79.2,69.3,72,29.96,10.0,Calm,Calm,-,N/A,,Clear,0,2013-07-05 03:15:00
10:35 PM,78.8,69.8,74,29.97,10.0,East,3.5,-,N/A,,Clear,100,2013-07-05 03:35:00
10:55 PM,77.9,70.9,79,29.97,10.0,East,3.5,-,N/A,,Clear,90,2013-07-05 03:55:00
11:15 PM,77.9,71.1,79,29.97,10.0,ESE,3.5,-,N/A,,Clear,110,2013-07-05 04:15:00
11:35 PM,78.3,70.9,78,29.96,10.0,Calm,Calm,-,N/A,,Clear,0,2013-07-05 04:35:00
11:55 PM,76.1,70.3,82,29.97,10.0,Calm,Calm,-,N/A,,Clear,0,2013-07-05 04:55:00